Location: Boulin
(43.2500°N, 0.1333°E)
Time: 15:01:47
(UTC+00:00)

Cosmos 2082 - Pass Details

Date: 11 December 2025
Orbit: 831 x 855 km, 71.0° (Epoch: 16 January)

Event Time Altitude Azimuth Distance (km) Brightness Sun altitude
Rises 19:24:27 0° 330° (NNW) 3,426 7.2 -31.9°
Reaches altitude 10° 19:26:57 10° 326° (NW) 2,489 6.5 -32.4°
Enters shadow 19:32:19 51° 258° (WSW) 1,070 4.4 -33.4°
